User: anonymous   Login
Location: Ellingshausen
(50.5460°N, 10.4723°E)
Time: 15:47:45
(UTC+00:00)
Language:

RUBIN 8/PSLV - Orbit

View from above orbital plane
View from above orbital plane
View from above satellite
View from above satellite

Ground track
Ground track

The orbit is defined by the following mean orbital elements,

1 32792U          26076.23975703 +.00000000 +00000-0 +13705-3 0 00002
2 32792  98.1452  75.7755 0022941 273.7231  86.1360 14.86123665    09
Epoch (UTC): 17 March 2026 05:45:15
Eccentricity: 0.0022941
inclination: 98.1452°
perigee height: 594 km
apogee height: 626 km
right ascension of ascending node: 75.7755°
argument of perigee: 273.7231°
revolutions per day: 14.86123665
mean anomaly at epoch: 86.1360°

The dashed part of the orbit path shows where the satellite is in the earth's shadow,  

DLR